User: anonymous   Login
Location: Sternwarte Stuttgart
(48.7670°N, 9.1830°E)
Time: 00:19:12
(UTC+01:00)
Language:

Cosmos 2219 - Orbit

View from above orbital plane
View from above orbital plane
View from above satellite
View from above satellite

Ground track
Ground track

The orbit data is extracted from the following two-line orbital elements,

1 22219U 92076A   19078.58912278 +.00000125 +00000-0 +90880-4 0  9994
2 22219 071.0580 299.9896 0017212 135.9612 224.2884 14.13631578358398
Epoch (UTC): 19 March 2019 14:08:20
Eccentricity: 0.0017212
inclination: 71.0580°
perigee height: 834 km
apogee height: 859 km
right ascension of ascending node: 299.9896°
argument of perigee: 135.9612°
revolutions per day: 14.13631578
mean anomaly at epoch: 224.2884°
orbit number at epoch: 35839

The dashed part of the orbit path shows where the satellite is in the earth's shadow,  

DLR